Location: Malvern Link
(52.1333°N, 2.3000°W)
Time: 16:34:30
(UTC+00:00)

QB50P2 - Pass Details

Date: 02 July 2022
Orbit: 590 x 605 km, 97.9° (Epoch: 18 August)

Event Time Altitude Azimuth Distance (km) Brightness Sun altitude
Rises 00:14:14 0° 31° (NNE) 2,864 ? -14.8°
Reaches altitude 10° 00:17:38 10° 60° (ENE) 1,957 ? -14.8°
Maximum altitude 00:19:32 13° 87° (E) 1,780 ? -14.8°
Drops below altitude 10° 00:21:26 10° 114° (ESE) 1,953 ? -14.8°
Enters shadow 00:22:27 - 125° (SE) 2,165 ? -14.8°
